Find Starlink 30904

NORAD ID: 58364 Int'l Des: 2023-177 Owner: SPXS Country: US Constellation: starlink operational
LEOCIRCULAR

Live Position

Loading 3D Globe...

About Starlink 30904

Description loading...

Upcoming Passes

Passes for default location (London). Set your location on the main map for personalized predictions.

Altitude History

Loading altitude history...

Two-Line Element Set

1 58364U 23177P 26139.80019528 .00017375 00000-0 11191-2 0 9998
2 58364 43.0018 320.8566 0008248 270.4119 89.5781 15.08051366138960
Epoch: May 19, 2026 • Age: 12 hours

Current Status

Altitude 543.2 km
Velocity 7.59 km/s
Sub-Earth Point -15.32°S, 168.73°E
Launch Date Nov 18, 2023
Age 2.5 years
Type internet

Technical Details

Classification Payload
Mass 730.00 kg
Dry Mass 700.00 kg
Total Mass 730.00 kg
Length 0.30 m
Diameter 4.10 m
Span 29.00 m
Shape Box + pan
Manufacturer SPXS
Bus Type Starlink V2M
Phase Status In Orbit
Owner/State SPXS/US

Most Searched